Location: Cactus School
(34.5700°N, 118.0931°W)
Time: 05:53:34
(UTC-08:00)

Tiros 1 - Pass Details

Date: 29 November 2019
Orbit: 630 x 664 km, 48.4° (Epoch: 10 December)

Event Time Altitude Azimuth Distance (km) Brightness Sun altitude
Rises 07:50:28 0° 186° (S) 2,932 11.0 11.7°
Reaches altitude 10° 07:53:42 10° 163° (SSE) 2,019 10.7 12.3°
Maximum altitude 07:56:18 15° 129° (SE) 1,717 13.3 12.7°
Drops below altitude 10° 07:58:53 10° 95° (E) 2,015 10.8 13.1°
Sets 08:02:06 0° 72° (ENE) 2,922 11.0 13.6°
